Weather History for PAGS - February, 2013

Change the Weather History Date:

Thursday, February 21, 2013

  Actual Average Record
Temperature  
Mean Temperature 40 °F -  
Max Temperature 42 °F - - ()
Min Temperature 39 °F - - ()
Degree Days  
Heating Degree Days 24    
Moisture  
Dew Point 31 °F    
Average Humidity 71    
Maximum Humidity 81    
Minimum Humidity 65    
Precipitation  
Precipitation 0.00 in - - ()
Sea Level Pressure  
Sea Level Pressure 29.24 in    
Wind  
Wind Speed 11 mph (SE)    
Max Wind Speed 17 mph    
Max Gust Speed 26 mph    
Visibility 10 miles    
Events      
T = Trace of Precipitation, MM = Missing Value Source: NWS Daily Summary

Daily Weather History Graph

Daily Weather History Graph

Search for Another Location

Airport or City:

Trip Planner

Search our weather history database for the weather conditions in past years. The results will help you decide how hot, cold, wet, or windy it might be!

Date:

Astronomy

Feb. 21, 2013 Rise Set
Actual Time 7:18 AM AKST 5:15 PM AKST
Civil Twilight 6:37 AM AKST 5:55 PM AKST
Nautical Twilight 5:51 AM AKST 6:42 PM AKST
Astronomical Twilight 5:06 AM AKST 7:28 PM AKST
Moon 1:01 PM AKST (2/21) 5:06 AM AKST (2/21)
Length of Visible Light 11h 17m
Length of Day
9h 56m
Waxing Gibbous, 85% of the Moon is Illuminated
Feb 21
Waxing Gibbous
Feb 25
Full
Mar 4
Last Quarter
Mar 11
New
Mar 19
First Quarter

Hourly Weather History & Observations

Time (AKST) Temp. Windchill Dew Point Humidity Pressure Visibility Wind Dir Wind Speed Gust Speed Precip Events Conditions
12:16 AM 39.2 °F 32.0 °F 28.4 °F 65% 29.27 in 10.0 mi ESE 11.5 mph - N/A   Overcast
12:36 AM 39.2 °F 32.5 °F 28.4 °F 65% 29.27 in 10.0 mi ESE 10.4 mph - N/A   Overcast
12:56 AM 39.2 °F 34.2 °F 28.4 °F 65% 29.27 in 10.0 mi SE 6.9 mph - N/A   Overcast
1:16 AM 39.2 °F 35.0 °F 28.4 °F 65% 29.27 in 10.0 mi SE 5.8 mph - N/A   Overcast
1:36 AM - - - N/A% 29.27 in 10.0 mi ESE 6.9 mph - N/A   Overcast
1:56 AM - - - N/A% 29.27 in 10.0 mi South 4.6 mph - N/A   Overcast
2:16 AM - - - N/A% 29.28 in 10.0 mi SSE 8.1 mph 16.1 mph N/A   Overcast
2:56 AM - - - N/A% 29.28 in 10.0 mi ESE 11.5 mph - N/A   Overcast
3:16 AM - - - N/A% 29.27 in 10.0 mi SE 8.1 mph - N/A   Overcast
3:36 AM - - - N/A% 29.28 in 10.0 mi SE 6.9 mph - N/A   Mostly Cloudy
3:56 AM - - - N/A% 29.27 in 10.0 mi ESE 5.8 mph - N/A   Overcast
4:16 AM - - - N/A% 29.28 in 10.0 mi SE 4.6 mph - N/A   Overcast
4:36 AM - - - N/A% 29.27 in 10.0 mi SE 6.9 mph - N/A   Overcast
4:56 AM - - - N/A% 29.28 in 10.0 mi SE 8.1 mph - N/A   Overcast
5:16 AM - - - N/A% 29.28 in 10.0 mi SSE 5.8 mph - N/A   Overcast
5:36 AM - - - N/A% 29.27 in 10.0 mi SE 11.5 mph - N/A   Overcast
5:56 AM - - - N/A% 29.27 in 10.0 mi SE 12.7 mph - N/A   Overcast
6:16 AM - - - N/A% 29.28 in 10.0 mi SE 12.7 mph - N/A   Overcast
6:36 AM - - - N/A% 29.28 in 10.0 mi SE 15.0 mph - N/A   Overcast
6:56 AM - - - N/A% 29.28 in 10.0 mi SE 12.7 mph - N/A   Overcast
7:16 AM - - - N/A% 29.28 in 10.0 mi SE 9.2 mph 18.4 mph N/A   Overcast
7:36 AM - - - N/A% 29.28 in 10.0 mi SE 11.5 mph 17.3 mph N/A   Overcast
7:56 AM - - - N/A% 29.29 in 10.0 mi SE 11.5 mph - N/A   Overcast
8:16 AM - - - N/A% 29.29 in 10.0 mi SE 11.5 mph - N/A   Overcast
8:36 AM 39.2 °F 32.0 °F 30.2 °F 70% 29.29 in 10.0 mi SE 11.5 mph - N/A   Overcast
8:56 AM 39.2 °F 32.0 °F 30.2 °F 70% 29.30 in 10.0 mi SE 11.5 mph - N/A   Overcast
9:16 AM 39.2 °F 33.0 °F 30.2 °F 70% 29.30 in 10.0 mi SE 9.2 mph - N/A   Overcast
9:36 AM 39.2 °F 30.8 °F 30.2 °F 70% 29.30 in 10.0 mi SE 15.0 mph - N/A   Overcast
9:56 AM 39.2 °F 31.2 °F 30.2 °F 70% 29.31 in 10.0 mi SE 13.8 mph - N/A   Mostly Cloudy
10:16 AM 39.2 °F 32.0 °F 30.2 °F 70% 29.31 in 10.0 mi ESE 11.5 mph - N/A   Overcast
10:36 AM 39.2 °F 31.2 °F 30.2 °F 70% 29.31 in 10.0 mi SE 13.8 mph - N/A   Overcast
10:56 AM 39.2 °F 30.8 °F 32.0 °F 75% 29.31 in 10.0 mi SE 15.0 mph 21.9 mph N/A   Overcast
11:16 AM 39.2 °F 31.2 °F 32.0 °F 75% 29.31 in 10.0 mi SE 13.8 mph - N/A   Mostly Cloudy
11:36 AM 39.2 °F 30.5 °F 32.0 °F 75% 29.31 in 10.0 mi SE 16.1 mph - N/A   Mostly Cloudy
11:56 AM 39.2 °F 30.5 °F 33.8 °F 81% 29.31 in 10.0 mi SE 16.1 mph 20.7 mph N/A   Mostly Cloudy
12:16 PM 39.2 °F 30.2 °F 32.0 °F 75% 29.31 in 10.0 mi SE 17.3 mph 24.2 mph N/A   Mostly Cloudy
12:36 PM 39.2 °F 31.2 °F 32.0 °F 75% 29.31 in 10.0 mi SE 13.8 mph 19.6 mph N/A   Overcast
12:56 PM 41.0 °F 33.5 °F 33.8 °F 76% 29.30 in 10.0 mi SE 13.8 mph - N/A   Overcast
1:16 PM - - - N/A% 29.29 in 10.0 mi SE 12.7 mph - N/A   Overcast
1:36 PM - - - N/A% 29.29 in 10.0 mi SE 15.0 mph - N/A   Overcast
1:56 PM 41.0 °F 34.3 °F 33.8 °F 76% 29.29 in 10.0 mi SE 11.5 mph - N/A   Overcast
2:16 PM 41.0 °F 33.5 °F 33.8 °F 76% 29.28 in 10.0 mi SE 13.8 mph 19.6 mph N/A   Overcast
2:36 PM 42.8 °F 34.8 °F 32.0 °F 66% 29.28 in 10.0 mi SE 17.3 mph - N/A   Mostly Cloudy
2:56 PM 42.8 °F 35.4 °F 32.0 °F 66% 29.28 in 10.0 mi SE 15.0 mph - N/A   Mostly Cloudy
3:16 PM - - - N/A% 29.28 in 10.0 mi SE 11.5 mph - N/A   Mostly Cloudy
3:36 PM - - - N/A% 29.27 in 10.0 mi SE 13.8 mph 18.4 mph N/A   Overcast
3:56 PM - - - N/A% 29.27 in 10.0 mi SE 15.0 mph - N/A   Overcast
4:16 PM - - - N/A% 29.26 in 10.0 mi SE 16.1 mph 20.7 mph N/A   Overcast
4:36 PM - - - N/A% 29.25 in 10.0 mi SE 12.7 mph - N/A   Overcast
4:56 PM - - - N/A% 29.25 in 10.0 mi SE 12.7 mph - N/A   Overcast
5:16 PM 39.2 °F 31.2 °F 30.2 °F 70% 29.24 in 10.0 mi SE 13.8 mph - N/A   Mostly Cloudy
5:36 PM 39.2 °F 30.2 °F 30.2 °F 70% 29.23 in 10.0 mi SE 17.3 mph - N/A   Overcast
5:56 PM - - - N/A% 29.22 in 10.0 mi SE 15.0 mph 19.6 mph N/A   Overcast
6:16 PM - - - N/A% 29.21 in 10.0 mi SE 15.0 mph - N/A   Overcast
6:36 PM - - - N/A% 29.20 in 10.0 mi SE 16.1 mph 21.9 mph N/A   Mostly Cloudy
6:56 PM - - - N/A% 29.19 in 10.0 mi SE 15.0 mph 20.7 mph N/A   Mostly Cloudy
7:16 PM - - - N/A% 29.18 in 10.0 mi SSE 9.2 mph - N/A   Mostly Cloudy
7:36 PM - - - N/A% 29.17 in 10.0 mi SE 17.3 mph 26.5 mph N/A   Overcast
7:56 PM - - - N/A% 29.16 in 10.0 mi SE 12.7 mph 17.3 mph N/A   Overcast
8:16 PM - - - N/A% 29.14 in 10.0 mi SE 16.1 mph 20.7 mph N/A   Overcast
8:36 PM - - - N/A% 29.13 in 10.0 mi ESE 13.8 mph - N/A   Mostly Cloudy
8:56 PM - - - N/A% 29.12 in 10.0 mi SE 8.1 mph - N/A   Overcast
9:16 PM - - - N/A% 29.10 in 10.0 mi ESE 10.4 mph - N/A   Overcast
9:56 PM - - - N/A% 29.07 in 10.0 mi ENE 6.9 mph - N/A   Overcast
10:16 PM - - - N/A% 29.05 in 10.0 mi NE 3.5 mph - N/A   Overcast
10:36 PM - - - N/A% 29.04 in 10.0 mi East 5.8 mph - N/A   Overcast
10:56 PM - - - N/A% 29.03 in 10.0 mi ENE 3.5 mph - N/A   Overcast
11:16 PM - - - N/A% 29.01 in 10.0 mi ENE 5.8 mph - N/A   Overcast
11:36 PM - - - N/A% 29.00 in 10.0 mi ESE 4.6 mph - N/A   Overcast
11:56 PM - - - N/A% 28.99 in 10.0 mi Calm Calm - N/A   Overcast